Other Public Products
Issued by NWS Grand Forks, ND

Home | Current Version | Previous Version | Graphics & Text | Print | Product List | Glossary On
Versions: 1 2 3 4 5 6 7 8 9 10 11 12 13 14 15 16 17 18 19 20 21 22 23 24 25 26 27 28 29 30 31 32 33 34 35 36 37 38 39 40 41 42 43 44 45 46 47 48 49 50
000
FPUS83 KFGF 031610
OPUFGF
PRAIRIE TO PINES WEATHER ROUNDUP
NATIONAL WEATHER SERVICE EASTERN NORTH DAKOTA/GRAND FORKS ND
1100 AM CDT MON AUG 03 2015

 **SATELLITE DATA USED TO AUGMENT SKY COVER AT AUTOMATED STATIONS**
 *****  WEATHER ACROSS EASTERN NORTH DAKOTA  *****

CITY           SKY/WX    TMP DP  RH WIND       PRES   REMARKS
GRAND FORKS    MOSUNNY   70  52  52 NW13      29.94R
GRAND FORKS AF SUNNY     70  51  51 N12       29.95R
GRAND CITY NWS   N/A     68 N/A N/A NW12        N/A
BUXTON         NOT AVBL
DEVILS LAKE    SUNNY     70  48  46 NW13      29.98S
FARGO          SUNNY     72  53  51 NW9       29.94S
WAHPETON ARPT  SUNNY     72  48  43 NW10      29.96S
$$

 *****  WEATHER ACROSS CENTRAL AND WESTERN NORTH DAKOTA  *****

CITY           SKY/WX    TMP DP  RH WIND       PRES   REMARKS
JAMESTOWN      SUNNY     71  49  45 NW14      30.00R
BISMARCK       SUNNY     72  53  51 S5        30.04S
MINOT          MOSUNNY   72  49  44 CALM      30.02S
MINOT AFB      SUNNY     75  50  40 W7        30.01S
GARRISON         N/A     71  50  47 CALM      30.03F
WILLISTON      SUNNY     72  47  40 SE3       30.04F
DICKINSON      SUNNY     72  48  42 E7        30.04F
HETTINGER      SUNNY     73  50  44 SE5       30.06F
$$

 *****  OTHER OBSERVATIONS NORTHEAST NORTH DAKOTA  *****

CITY           SKY/WX    TMP DP  RH WIND       PRES   REMARKS
WALHALLA       FAIR      66  55  68 MISG      29.95F
LANGDON        FAIR      70  50  49 NW8G15    29.98S
CAVALIER       FAIR      66  54  63 N12       29.94S
GRAFTON        FAIR      68  54  60 NW14G20   29.95S
CANDO          NOT AVBL
FORT TOTTEN      N/A     71  56  58 NW5       29.95S
ROLLA          FAIR      68  46  45 NW12      30.00F
RUGBY          NOT AVBL
 ***** THE ABOVE OBSERVATIONS ARE NON NWS ARE NOT QUALITY
        CONTROLLED AND MAY MIS-REPORT RAIN FOR SNOW...
$$

 *****  OTHER OBSERVATIONS SOUTHEAST NORTH DAKOTA *****

CITY           SKY/WX    TMP DP  RH WIND       PRES   REMARKS
COOPERSTOWN    NOT AVBL
VALLEY CITY    FAIR      72  52  49 NW14      29.99R
OAKES          NOT AVBL
GWINNER        FAIR      73  52  46 NW9       29.99S
BUFFALO        NOT AVBL
WYNDMERE         N/A     73  54  49 NW8         N/A
 ***** THE ABOVE OBSERVATIONS ARE NON NWS ARE NOT QUALITY
       CONTROLLED AND MAY MIS-REPORT RAIN FOR SNOW...
$$

  *****  WEATHER ACROSS NORTHERN MINNESOTA  *****

CITY           SKY/WX    TMP DP  RH WIND       PRES   REMARKS
FLAG ISLAND    LGT RAIN  57  55  94 NW18G26   29.85S
WARROAD        CLOUDY    63  54  72 NW15G21   29.88S
ROSEAU         PTSUNNY   66  55  68 NW13      29.89R
HALLOCK        SUNNY     68  52  56 NW14G32   29.92S
THF RVR FALLS  SUNNY     66  52  59 NW16      29.93R
HALSTAD        NOT AVBL
FOSSTON        SUNNY     70  48  46 NW14      29.93S
BAUDETTE       CLOUDY    63  52  67 NW13      29.86S
WASKISH        PTSUNNY   66  54  63 W14G20    29.87F
CROOKSTON      SUNNY     68  54  60 N12       29.94S
$$
  *****  WEATHER ACROSS CENTRAL AND WEST MINNESOTA  *****

CITY           SKY/WX    TMP DP  RH WIND       PRES   REMARKS
BEMIDJI        MOSUNNY   66  49  55 NW17      29.90S
PARK RAPIDS    SUNNY     70  47  43 N13       29.92S
WADENA         SUNNY     70  48  46 NW12      29.94R
DETROIT LAKES  SUNNY     68  48  49 NW7       29.95S
MOORHEAD       SUNNY     68  55  64 NW3         N/A
FERGUS FALLS   SUNNY     70  54  56 NW8       29.95R
ELBOW LAKE     FAIR      68  55  61 NW6       29.96S
MORRIS MN      SUNNY     72  55  56 NW10      29.96S
STAPLES        SUNNY     70  46  43 NW12G18   29.93S
WHEATON        SUNNY     70  54  56 W8        29.98S
$$
  *****  WEATHER ELSEWHERE ACROSS MINNESOTA  *****

CITY           SKY/WX    TMP DP  RH WIND       PRES   REMARKS
DULUTH         PTSUNNY   67  51  56 NW17G28   29.84R
INTRNTL FALLS  CLOUDY    63  54  72 W14G21    29.83S
ELY            PTSUNNY   63  50  63 W13       29.81R
CLOQUET        PTSUNNY   66  48  52 W16G22    29.86R
BRAINERD       SUNNY     70  48  45 NW15      29.92R
HIBBING        PTSUNNY   65  52  62 NW18G25   29.85S
ALEXANDRIA     SUNNY     71  48  43 NW9       29.97R
SAINT CLOUD    SUNNY     72  48  42 NW14      29.92S
MINNEAPOLIS    SUNNY     74  47  38 NW14      29.91S
$$

  *****  WEATHER ACROSS SOUTH DAKOTA  *****

CITY           SKY/WX    TMP DP  RH WIND       PRES   REMARKS
SIOUX FALLS    MOSUNNY   74  55  51 SW5       30.00S
BROOKINGS      SUNNY     72  55  56 NW7       30.02S
WATERTOWN      SUNNY     73  53  49 W7        30.00S
HURON          SUNNY     75  61  61 CALM      29.99F
SISSETON         N/A     74  50  42 N12       29.97R
ABERDEEN       SUNNY     76  49  38 NE5       30.00S
MITCHELL       SUNNY     75  60  59 SW3       30.00F
PIERRE         SUNNY     75  55  49 S7        30.01S
MOBRIDGE       SUNNY     75  57  53 N7        30.00F
RAPID CITY     SUNNY     74  58  57 SE6       30.05F
$$

  *****  SOME WEATHER IN NEARBY STATES *****

CITY           SKY/WX    TMP DP  RH WIND       PRES   REMARKS
GLASGOW MT     SUNNY     74  48  39 SE13      30.01F
GREAT FALLS MT SUNNY     74  50  42 VRB3      29.94F
CHEYENNE WY    PTSUNNY   79  48  33 SW6       30.14F
SCOTTSBLUFF NE MOSUNNY   73  60  63 SE6       30.03F
OMAHA NE       CLOUDY    76  62  62 SE7       29.99F
DES MOINES IA  MOSUNNY   78  55  44 VRB6      29.98R
DAVENPORT IA   SUNNY     76  54  46 N9        29.93R
CHICAGO IL     MOSUNNY   77  56  48 W10       29.86R
EAU CLAIRE WI  SUNNY     74  48  39 W13       29.86S
LA CROSSE WI   SUNNY     77  52  41 NW10G20   29.88S
$$

  *****  SOME NATIONAL WEATHER *****

CITY           SKY/WX    TMP DP  RH WIND       PRES   REMARKS
LA GUARDIA NY  MOSUNNY   86  60  41 SW13      29.84S
RALEIGH NC     MOSUNNY   86  71  60 SW7       29.95F HX  91
ATLANTA GA     MOSUNNY   86  70  58 CALM      29.97S HX  90
NEW ORLEANS LA PTSUNNY   91  71  51 N5        29.92R HX  97
OKLAHOMA CITY  CLOUDY    77  66  68 S5        29.97F
ALBUQUERQUE NM MOSUNNY   72  59  63 CALM      30.20R
SALT LAKE CITY LGT RAIN  63  60  90 N10       30.09R
LOS ANGELES CA MOSUNNY   72  64  76 SE6       29.91R
BOISE ID       CLOUDY    80  48  32 NE3       29.92R
SEATTLE WA     PTSUNNY   65  55  70 SW6       29.95R
$$

*** WEATHER ACROSS MANITOBA...SASKATCHEWAN AND ONTARIO ***
                ***ONTARIO***

CITY           SKY/WX    TMP DP  RH WIND       PRES   REMARKS
GERALDTON      CLOUDY    55  50  82 NW12      29.65R
THUNDER BAY    LGT RAIN  64  52  63 NW10G22   29.71R
SIOUX LOOKOUT  LGT RAIN  55  54  94 NW8       29.77R
TORONTO        MOSUNNY   75  57  53 W17G25    29.72S
BIG TROUT LK   CLOUDY    52  45  76 N12G17    29.72R
PICKLE LAKE    LGT RAIN  50  46  87 N7        29.71R
DRYDEN         CLOUDY    59  50  72 W14       29.80R
KENORA         DRIZZLE   57  54  88 NW7       29.84S
$$
                *** MANITOBA***

CITY           SKY/WX    TMP DP  RH WIND       PRES   REMARKS
BRANDON        MOSUNNY   72  54  53 W9        29.97F
DAUPHIN        SUNNY     68  50  52 NW3       29.94S
ISLAND LAKE    PTSUNNY   52  48  87 N8        29.83R
PILOT MOUND      N/A     66  50  55 NW9         N/A
THE PAS        MOSUNNY   66  50  55 N3        29.92S
THOMPSON       LGT RAIN  55  50  82 N7        29.89S
WINNIPEG       MOSUNNY   66  50  55 NW16G22   29.92F
LYNN LAKE      CLOUDY    57  48  72 N9        29.95S
CHURCHILL      CLOUDY    48  45  87 N9        29.89R
GILLAM         CLOUDY    48  46  93 N13       29.87R
$$
                ***SASKATCHEWAN***

CITY           SKY/WX    TMP DP  RH WIND       PRES   REMARKS
ESTEVAN        NOT AVBL
KINDERSLEY     PTSUNNY   72  55  56 SE9       29.99S
LLOYDMINSTER   PTSUNNY   70  54  56 S9        29.98S
PRINCE ALBERT  MOSUNNY   72  55  56 SW5       29.99F
REGINA         PTSUNNY   75  54  46 W3        30.03S
YORKTON        SUNNY     70  54  56 W7        29.98F



USA.gov is the U.S. government's official web portal to all federal, state and local government web resources and services.